CST,Max TemperatureF,Mean TemperatureF,Min TemperatureF,Max Dew PointF,MeanDew PointF,Min DewpointF,Max Humidity, Mean Humidity, Min Humidity, Max Sea Level PressureIn, Mean Sea Level PressureIn, Min Sea Level PressureIn, Max VisibilityMiles, Mean VisibilityMiles, Min VisibilityMiles, Max Wind SpeedMPH, Mean Wind SpeedMPH, Max Gust SpeedMPH,PrecipitationIn, CloudCover, Events, WindDirDegrees
2012-12-1,88,76,64,69,66,63,98,80,45,30.12,30.07,30.00,10,7,0,15,6,20,0.00,4,,145
2012-12-2,86,76,65,67,65,55,95,76,35,30.13,30.07,30.01,10,10,7,17,8,23,0.00,1,,141
2012-12-3,86,74,61,68,63,57,98,74,36,30.06,30.00,29.93,10,8,0,15,5,23,0.00,2,,149
2012-12-4,85,74,63,70,65,61,98,78,44,30.14,30.06,29.99,10,8,0,8,3,,0.00,4,,131
2012-12-5,79,66,53,66,50,39,86,56,24,30.22,30.12,30.05,10,10,10,10,6,,0.00,0,,1
2012-12-6,81,65,49,66,56,48,98,80,34,30.05,29.93,29.83,10,7,0,9,3,,0.00,2,,145
2012-12-7,84,71,58,69,63,58,99,82,45,29.88,29.81,29.73,10,7,0,17,5,22,0.00,4,,145
2012-12-8,86,74,63,71,66,63,97,79,48,29.88,29.82,29.77,10,8,3,15,6,21,0.00,4,,146
2012-12-9,85,76,67,71,68,66,96,79,53,29.90,29.82,29.75,10,8,2,14,6,18,0.00,4,,153
2012-12-10,72,61,50,70,40,23,93,52,23,30.12,30.00,29.79,10,9,5,22,7,34,0.01,4,,4
2012-12-11,55,49,43,33,28,24,63,42,29,30.22,30.14,30.09,10,10,10,8,4,,0.00,5,,19
2012-12-12,69,54,38,42,31,22,77,49,17,30.33,30.26,30.21,10,10,10,9,3,,0.00,0,,28
2012-12-13,71,60,48,62,52,42,86,70,55,30.26,30.20,30.13,10,10,10,17,5,20,0.00,6,,80
2012-12-14,79,72,66,69,66,63,91,76,62,30.12,30.01,29.87,10,10,7,17,8,24,0.00,7,,138
2012-12-15,81,74,66,71,68,65,95,81,62,29.95,29.86,29.82,10,8,3,10,6,16,0.00,2,,174
2012-12-16,82,75,68,71,67,63,96,81,55,29.87,29.80,29.72,10,6,1,12,5,,0.00,4,,295
2012-12-17,82,69,55,62,47,32,79,52,16,30.02,29.93,29.85,10,10,10,13,5,20,0.00,0,,323
2012-12-18,89,68,48,70,55,42,92,65,33,29.96,29.88,29.78,10,10,3,18,6,25,0.00,1,,161
2012-12-19,90,82,72,71,69,64,91,72,43,29.82,29.74,29.66,10,9,5,25,13,34,0.00,3,,166
2012-12-20,72,60,47,70,23,10,97,28,13,30.50,30.27,29.78,10,8,0,24,10,33,0.00,2,,337
2012-12-21,66,52,38,41,23,7,65,36,11,30.55,30.45,30.35,10,10,10,12,2,16,0.00,0,,66
2012-12-22,75,61,47,61,51,38,89,66,50,30.35,30.22,30.10,10,10,5,15,5,21,0.00,4,,117
2012-12-23,81,66,51,62,56,51,99,73,37,30.10,29.99,29.89,10,8,0,17,4,23,0.00,1,,178
2012-12-24,82,70,59,67,61,58,96,75,46,29.96,29.84,29.70,10,10,7,15,5,21,0.00,0,,154
2012-12-25,80,66,51,65,46,23,96,55,14,30.14,29.76,29.60,10,9,5,25,9,32,0.00,0,,319
2012-12-26,57,48,39,35,27,23,79,47,27,30.31,30.19,30.11,10,10,10,13,7,21,0.00,0,,360
2012-12-27,64,52,39,53,43,33,88,68,52,30.10,29.93,29.81,10,10,10,7,2,,0.00,6,,5
2012-12-28,75,64,53,56,43,30,91,53,22,30.18,29.91,29.77,10,10,4,16,5,24,0.00,2,,349
2012-12-29,57,50,44,34,27,21,61,40,26,30.47,30.38,30.19,10,10,10,15,8,21,0.00,0,,15
2012-12-30,68,56,44,59,44,27,73,57,45,30.44,30.28,30.14,10,10,10,13,6,17,0.00,5,,62
2012-12-31,81,72,64,67,64,59,94,73,54,30.13,29.98,29.87,10,10,7,21,8,29,0.00,4,,150